World > North America > United States > Mississippi > Pinedale

Hourly Pinedale, MS Regional Weather

Feedback E-mail the Weather

Quick WX

Pinedale, MS Weather Maps

°F °C°F °C
Pinedale Weather Map
UTC Time: 8/19/2022, 10:22
Your Time:

Pinedale, MS Regional Weather

Expires:202208191100;;305942
ASUS44 KJAN 191010
RWRMS 

MISSISSIPPI HOURLY WEATHER ROUNDUP
NATIONAL WEATHER SERVICE JACKSON MS
500 AM CDT FRI AUG 19 2022

NOTE: "FAIR: INDICATES FEW OR NO CLOUDS BELOW 12,000 FEET WITH NO
SIGNIFICANT WEATHER AND/OR OBSTRUCTIONS TO VISIBILITY.


MSZ003>006-009-014>017-022>024-029>033-037>039-191100-
NORTHEAST MISSISSIPPI
  
CITY           SKY/WX    TMP DP  RH WIND       PRES   REMARKS
ABERDEEN       MOCLDY    72  72 100 CALM      29.94F FOG              
COLUMBUS AFB   CLOUDY    73  72  95 CALM      29.91R                  
CORINTH        FOG       64  64 100 CALM      29.94S VSB 3/4          
GOLDN TRIANGLE CLOUDY    73  72  96 SW3       29.95R                  
STARKVILLE     CLOUDY    72  72 100 CALM      29.92F                  
TUPELO         CLEAR     70  65  84 CALM      29.93S                  
$$


SKY/WX - Weather  TMP - Temperature  DP - Dew Point  RH - Humidity
WIND - Wind Direction/Speed PRES - Barometric Pressure VSB - Visibility
WCI - Wind Chill Index E13G22 Wind - East Wind 13 mph/Gusts of 22 mph

Trending Headlines

Pinedale Radar Loop



Pinedale Quick Facts


National Two Day Weather Forecast


E-mail the Pinedale Weather Forecast

Voice your opinion or tell us about page issues...